Regional Weather Roundup
Issued by NWS

Home | Current Version | Previous Version | Graphics & Text | Print | Product List | Glossary On
Versions: 1 2 3 4 5 6 7 8 9 10 11 12 13 14 15 16 17 18 19 20 21 22 23 24 25 26 27 28 29 30 31 32 33 34 35 36 37 38 39 40 41 42 43 44 45 46 47 48 49 50
000
ASUS43 KFSD 081502
RWRSD

WEATHER ROUNDUP FOR SOUTH DAKOTA
NATIONAL WEATHER SERVICE SIOUX FALLS SD
900 AM CST MON FEB 08 2016

NOTE: "FAIR" INDICATES FEW OR NO CLOUDS BELOW 12,000 FEET WITH NO
SIGNIFICANT WEATHER AND/OR OBSTRUCTIONS TO VISIBILITY.


SDZ001>005-009-010-012>017-081600-
NORTHWEST AND NORTH CENTRAL SOUTH DAKOTA

CITY           SKY/WX    TMP DP  RH WIND       PRES   REMARKS
BUFFALO          N/A     25  14  63 W12       30.29S WCI  14
FAITH            N/A     24  13  62 NW21      30.33R WCI   9
MOBRIDGE       CLEAR     25  17  72 NW15      30.24R WCI  13
$$

SDZ012>016-024>037-041>051-057-063-072>074-081600-
SOUTHWEST AND SOUTH CENTRAL SOUTH DAKOTA

CITY           SKY/WX    TMP DP  RH WIND       PRES   REMARKS
RAPID CTY ARPT CLOUDY    32  11  41 N22G35    30.33R WCI  19
PIERRE         SUNNY     27  18  69 NW24G33   30.27R WCI  12
CUSTER         CLOUDY    26  -1  31 NW13G26   30.25R WCI  15
ELLSWORTH AFB  CLOUDY    31  11  43 NW28G35   30.32S WCI  17
PHILIP         PTCLDY    28  16  60 NW17G25   30.34S WCI  16
PINE RIDGE     CLOUDY    20  12  71 W3        30.37R
WINNER         FAIR      27  16  63 NW28G37   30.26R WCI  11
$$

SDZ004>011-016>023-039-040-081600-
NORTHEAST SOUTH DAKOTA

CITY           SKY/WX    TMP DP  RH WIND       PRES   REMARKS
ABERDEEN       PTSUNNY   23  13  65 N30G43    30.19R WCI   5
WATERTOWN      FLURRIES  18  10  71 N30G38    30.07S WCI  -1
BROOKINGS      LGT SNOW  17  12  80 N23       30.04R WCI  -1
SISSETON         N/A     15  11  83 N23       30.13R WCI  -3
$$

SDZ017-020-022-023-036>040-048>070-081600-
SOUTHEAST SOUTH DAKOTA

CITY           SKY/WX    TMP DP  RH WIND       PRES   REMARKS
SIOUX FALLS    LGT SNOW  20  14  77 N24G31    30.08R BLWGSNOWWCI   3
HURON          CLOUDY    23  16  74 N21G28    30.17R WCI   8
MITCHELL       CLOUDY    26  19  74 N16G24    30.17R WCI  14
YANKTON        CLOUDY    25  18  74 NW23G29   30.14R WCI  10
$$

ABBREVIATIONS USED IN REMARKS
   TC - TEMPERATURE IN CELSIUS
  WCI - WIND CHILL INDEX
   HX - HEAT INDEX
  VSB - VISIBILITY





USA.gov is the U.S. government's official web portal to all federal, state and local government web resources and services.